FENGYUN 1C DEB, 30621

Orbit data source: Space-Track

FENGYUN 1C DEB, 30621 is space debris in SSO originally from a launch on Mon, 10 May 1999 UTC launched from the Taiyaun Space Center, China (TSC). Fengyun 1C debris stems from the Chinese weather satellite Fengyun-1C, which was intentionally destroyed by a Chinese anti-satellite missile in 2007. This event dramatically increased the amount of space debris, with thousands of trackable fragments posing hazards to satellites and human spaceflight. The Fengyun 1C debris cloud has become a focal point in discussions about space sustainability and the need for international regulations to prevent the creation of new debris.

Loading next visibility...
Identifier
30621, 1999-025ANC
Orbit
SSO
Country
Flag of CNCN / PRC
Related business
Manufacturer
Unknown
Mission
Spacecraft
Bus & Motor
Unknown
Mass
Unknown
Launch date (UTC)
1999-05-10 (27 years ago)
Launch vehicle
Unknown
Launch site
Taiyaun Space Center, China (TSC)
Object type
Payload
Rocket body
Debris
Shape & HBR
Unknown shape, 0.1 m
Radar Cross Section
Small (<0.1 m²)

Expand to show TLE details & history
Last TLE update: 1 day ago

TLE from 1 day ago
0 FENGYUN 1C DEB
1 30621U 99025ANC 26103.79345213  .00001570  00000-0  92885-3 0  9991
2 30621  98.7016  47.1083 0135208 323.7050  64.6220 14.04677350973036
Epoch: 2026-04-13T19:02Z
TLE epoch observation values (Epoch: 2026-04-13T19:02:34.264Z)
Latitude
29.41023°
Longitude
-85.43653°
Altitude
840.321 km
Speed
7.456 km/s
True Right ascension
02h 48m 44s
True Declination
29° 15' 54"
Sunlit
Object was in daylight at epoch
Visualization orbit readout
Latitude
Unknown
Longitude
Unknown
Altitude
Unknown
Speed
Unknown
Apparent Right ascension
Unknown
Apparent Declination
Unknown
Sunlit
N/A
Visualization observer readout
Local Sidereal Time
09:08:19
Azimuth
Unknown
Elevation
Unknown
Doppler factor
Unknown
Orbital elements
Apogee altitude
972.887 km
Perigee altitude
776.755 km
Semi-major axis
7,252.958 km
Eccentricity
0.01352
Inclination
98.7016°
RAAN
47.1083°
Arg. of periapsis
323.705°
True anomaly
66.03192°
Mean anomaly
64.622°
Eccentric anomaly
65.32595°
Mean motion
3.51375 °/min
Orbital period
102.45 mins
BSTAR
0.00092885
Loading maneuver chart data...
Computing Atmospheric mass density...

Documentation

Showing up to 5 results
|